Regional Weather Roundup
Issued by NWS

Home | Current Version | Previous Version | Text Only | Print | Product List | Glossary On
Versions: 1 2 3 4 5 6 7 8 9 10 11 12 13 14 15 16 17 18 19 20 21 22 23 24 25 26 27 28 29 30 31 32 33 34 35 36 37 38 39 40 41 42 43 44 45 46 47 48 49 50
000
ASUS43 KMPX 231810
RWRMN
WEATHER ROUNDUP FOR MINNESOTA
NATIONAL WEATHER SERVICE TWIN CITIES/CHANHASSEN MN
100 PM CDT WED APR 23 2014


NOTE: "FAIR" INDICATES FEW OR NO CLOUDS BELOW 12,000 FEET WITH NO
SIGNIFICANT WEATHER AND/OR OBSTRUCTIONS TO VISIBILITY. N/A MEANS
CURRENT SKY AND/OR WEATHER CONDITIONS ARE NOT AVAILABLE.

MNZ060>063-068>070-231900-
   Twin Cities Metro

CITY           SKY/WX    TMP DP  RH WIND       PRES   REMARKS
TWIN CITIES    LGT RAIN  44  33  65 SE16      30.07F
6HR MIN TEMP:  42; 6HR MAX TEMP:  47; 6HR PCP: TRACE;

ST PAUL        CLOUDY    47  28  47 SE14      30.08F
CRYSTAL        CLOUDY    48  27  44 SE14      30.05F
EDEN PRAIRIE   LGT RAIN  43  35  73 SE15      30.04F
6HR MIN TEMP:  42; 6HR MAX TEMP:  48; 6HR PCP:  0.05;

LAKEVILLE      LGT RAIN  39  36  87 SE9G16    30.05F
SOUTH ST PAUL  PTSUNNY   49  29  45 SE10G17   30.07F
LAKE ELMO      PTSUNNY   46  30  53 S10G17    30.08F
$$
MNZ001>005-007-008-013>017-022>024-027-028-231900-
   Northwest Minnesota

CITY           SKY/WX    TMP DP  RH WIND       PRES   REMARKS
BEMIDJI        FAIR      49  25  38 SE17G26   29.96F
HALLOCK          N/A     54  28  37 SE20      29.88F
ROSEAU         FAIR      57  25  28 SE20      29.94F
WARROAD        FAIR      55  30  38 SE14G23   29.96F
THIEF RVR FALL PTSUNNY   52  25  35 SE17G25   29.91S
CROOKSTON      LGT RAIN  45  39  81 SE15      29.90F
FOSSTON        LGT RAIN  46  27  46 SE16G25   29.92R
DETROIT LAKES  LGT RAIN  41  37  87 SE22G30   29.91S
MOORHEAD       HVY RAIN  45  45 100 SE18      29.87F
PARK RAPIDS    PTSUNNY   49  27  42 SE23      29.95F
$$
MNZ006-009>011-018-025>026-231900-
   North Central Minnesota

CITY           SKY/WX    TMP DP  RH WIND       PRES   REMARKS
BAUDETTE       FAIR      56  25  30 SE12G24   29.98F
FLAG ISLAND    FAIR      46  25  42 SE5       29.99F
INTL FALLS     FAIR      52  23  32 S12G21    30.03F
6HR MIN TEMP:  28; 6HR MAX TEMP:  53;

WASKISH        FAIR      55  27  33 SE12G18   29.98F
BIG FORK       FAIR      54  25  32 SE10      30.02F
LONGVILLE      FAIR      48  21  34 SE16G25   30.00F
GRAND RAPIDS   FAIR      52  21  30 S17G28    30.03F
CRANE LAKE     FAIR      54  19  26 SE3       30.08F
ORR            FAIR      54  18  24 S12G17    30.03F
COOK           FAIR      52  25  35 S9G16     30.06F
$$
MNZ012-019>021-037-231900-
   Northeast Minnesota

CITY           SKY/WX    TMP DP  RH WIND       PRES   REMARKS
DULUTH         FAIR      49  26  41 SE10      30.08F
6HR MIN TEMP:  32; 6HR MAX TEMP:  49;

ELY            FAIR      52  19  28 S8        30.07F
HIBBING        FAIR      54  23  30 SE14G21   30.05F
EVELETH        FAIR      52  21  30 SE9       30.07F
DULUTH HARBOR  FAIR      37  32  81 CALM      30.13F
TWO HARBORS    FAIR      48  27  43 SE8       30.09F
SILVER BAY     FAIR      46  28  49 E6        30.11F
GRAND MARAIS     N/A     40  28  62 CALM      30.16F
G MARAIS ARPRT FAIR      45  19  36 SE3       30.13S
$$
MNZ029>031-032-039>041-046>048-054>057-064-231900-
   West Central Minnesota

CITY           SKY/WX    TMP DP  RH WIND       PRES   REMARKS
FERGUS FALLS   LGT RAIN  41  39  93 SE23G30   29.87F
WHEATON        LGT RAIN  45  41  87 SE26G35   29.86F
MORRIS         LGT RAIN  41  37  87 SE23G29   29.89F
ALEXANDRIA     RAIN      39  36  89 SE18      29.96R FOG
ELBOW LAKE     LGT RAIN  40  38  94 SE23G29   29.91S
WADENA         LGT RAIN  39  36  87 SE17G31   29.96S
GLENWOOD       LGT RAIN  39  37  93 SE17G25   29.96R
APPLETON       CLOUDY    43  37  81 SE23G29   29.89F
BENSON         LGT RAIN  41  39  93 SE18G25   29.92F
ORTONVILLE     CLOUDY    43  36  75 SE22G30   29.83F
MADISON        CLOUDY    46  39  76 SE23G31   29.86F
WILLMAR        PTSUNNY   41  37  87 SE23G29   29.96F
$$
MNZ033>034-036-042>043-049>051-058-059-231900-
   Central Minnesota

CITY           SKY/WX    TMP DP  RH WIND       PRES   REMARKS
ST CLOUD       LGT RAIN  44  34  67 SE12G20   30.02F
6HR MIN TEMP:  43; 6HR MAX TEMP:  47; 6HR PCP:  0.09;

SAUK CENTRE    RAIN      39  36  91 SE14G23   29.97S
PAYNESVILLE    DRIZZLE   40  37  91 SE13G22   29.99S
AITKIN         FAIR      52  23  32 SE15G22   30.02F
PINE RIVER     FAIR      50  28  43 SE17      30.02F
BRAINERD       FAIR      55  24  30 SE15G24   30.01F
STAPLES        LGT RAIN  43  32  65 SE16G23   29.98S
LONG PRAIRIE   CLOUDY    39  36  87 E15G25    29.97F
LITTLE FALLS   MIX PCPN  41  32  70 SE10G20   30.01F
LITCHFIELD     LGT RAIN  39  39 100 SE15G26   30.00F
BUFFALO        RAIN      42  34  74 SE12      30.04F
MAPLE LAKE     LGT RAIN  43  37  79 SE9       30.03F
$$
MNZ037-044-045-052-053-231900-
   East Central Minnesota

CITY           SKY/WX    TMP DP  RH WIND       PRES   REMARKS
PRINCETON      FAIR      48  27  43 SE10G20   30.05F
MORA           FAIR      46  27  46 SE14G21   30.07F
CAMBRIDGE      FAIR      52  32  46 SE15      30.04F
RUSH CITY      FAIR      49  27  42 SE10      30.07F
MOOSE LAKE     FAIR      52  27  37 S9        30.05F
HINCKLEY       FAIR      50  27  40 SE13G18   30.07F
CLOQUET        FAIR      48  23  37 E12       30.07F
MCGREGOR       FAIR      50  27  40 SE14G21   30.05F
$$
MNZ071>073-080-081-089-090-097-098-231900-
   Southwest Minnesota

CITY           SKY/WX    TMP DP  RH WIND       PRES   REMARKS
MONTEVIDEO     CLOUDY    43  39  87 S21G26    29.91F
GRANITE FALLS  CLOUDY    43  35  74 E21G30    29.91F
CANBY          CLOUDY    44  37  78 SE21G31   29.85F
MARSHALL       CLOUDY    45  34  65 SE24G31   29.84F
REDWOOD FALLS  CLOUDY    44  36  73 SE17G28   29.93F
OLIVIA         CLOUDY    41  36  81 SE20G25   29.94F
PIPESTONE      CLOUDY    48  36  61 SE20G28   29.79F
WINDOM         CLOUDY    46  36  66 E18       29.89F
WORTHINGTON    CLOUDY    48  30  49 SE25G33   29.85F
JACKSON        CLOUDY    50  32  50 SE20      29.90F
TRACY          CLOUDY    45  37  71 E20G25    29.87F
SLAYTON        CLOUDY    46  34  62 E21G26    29.84F
$$
MNZ065>067-074>077-082>085-091>093-231900-
   South Central Minnesota

CITY           SKY/WX    TMP DP  RH WIND       PRES   REMARKS
MANKATO        CLOUDY    43  34  70 SE20G30   30.01S
NEW ULM        PTSUNNY   43  37  81 SE16G22   29.96F
ST JAMES       CLOUDY    45  36  70 E20G25    29.96F
FAIRMONT       CLOUDY    46  34  61 SE21G30   29.96S
GLENCOE        CLOUDY    41  36  83 SE18G24   30.01F
FARIBAULT      LGT RAIN  43  34  70 E13G20    30.06F
OWATONNA       DRIZZLE   43  36  75 SE14G20   30.05F
WASECA         LGT RAIN  39  32  75 E18       30.05F
ALBERT LEA     LGT RAIN  45  32  61 SE20G25   30.02F
$$
MNZ078>079-086>088-094>096-231900-
   Southeast Minnesota

CITY           SKY/WX    TMP DP  RH WIND       PRES   REMARKS
ROCHESTER      LGT RAIN  43  32  65 SE16      30.08F
6HR MIN TEMP:  40; 6HR MAX TEMP:  45; 6HR PCP: TRACE;

RED WING       FAIR      48  27  43 S13       30.08F
STANTON        LGT RAIN  43  34  70 SE8       30.06F
DODGE CENTER   DRIZZLE   45  36  70 SE15      30.06F
WINONA         FAIR      48  30  49 S8        30.11F
AUSTIN         FAIR      45  32  61 SE17      30.05F
PRESTON        LGT RAIN  44  32  62 SE10      30.09F
$$
ABBREVIATIONS USED IN REMARKS
   TC - TEMPERATURES IN CELSIUS
  WCI - WIND CHILL INDEX
   HX - HEAT INDEX
  VSB - VISIBILITY
$$


USA.gov is the U.S. government's official web portal to all federal, state and local government web resources and services.